Weather in Argun

Russia / Chechen Republic     43°17′34″N   45°52′00″E
temp.,
°C
wind,
m/s
gust,
m/s
humid.,
%
clouds,
%
prec.,
mm/h
press.,
hPa
HPBL,
m
22 april, thu
thu2200:00+12w0082100 0.0 102122
03:00+11ese118599 0.0 102117
06:00+11s118293 0.0 102298
09:00+13nne1271100 0.0 1022360
12:00+14nne336299 0.0 1022786
15:00+14ne2258100 0.0 1022905
18:00+13n1170100 0.2 1022265
21:00+13wsw1172100 0.2 102282
23 april, fri
fri2300:00+12nw2276100 0.1 1021251
03:00+11nw2490100 0.8 1022344
06:00+11w2494100 2.6 1023324
09:00+11wsw41087100 6.8 1025641
12:00+13wsw477195 0.9 10241030
15:00+19wnw35435 0.9 10221709
18:00+17n23482 0.0 1022293
21:00+13sse226026 0.0 102220
24 april, sat
sat2400:00+11se11665 0.0 102018
03:00+10sse117063 0.0 101911
06:00+11sw1269100 0.0 102062
09:00+16nne235291 0.0 1019712
12:00+20ne224475 0.0 10181158
15:00+22ne11379 0.0 10171607
18:00+18ene455262 0.0 1018548
21:00+14e12625 0.0 1019136
25 april, sun
sun2500:00+13ssw116873 0.0 101918
03:00+12wsw117288 0.0 101916
06:00+13wsw017289 0.0 101937
09:00+17nnw225046 0.0 1019854
12:00+21nne224198 0.0 10171475
15:00+21e434354 0.0 10151700
18:00+17ene5752100 0.0 1014681
21:00+14e3559100 0.0 1015259
26 april, mon
mon2600:00+12se016360 0.0 101569
03:00+11w116799 0.0 101433
06:00+12s116999 0.0 1014100
09:00+16nw224993 0.0 1015923
12:00+17nnw3247100 0.0 10141187
15:00+19n3245100 0.0 10141353
18:00+17n2353100 0.0 1014627
21:00+14sw2277100 1.1 1016176